Location: Newark
(45.5167°N, 11.1667°E)
Time: 05:38:03
(UTC+00:00)

Explorer 7 - Pass Details

Date: 15 December 2019
Orbit: 485 x 679 km, 50.3° (Epoch: 22 January)

Event Time Altitude Azimuth Distance (km) Brightness Sun altitude
Rises 16:54:57 0° 287° (WNW) 3,020 11.5 -13.8°
Reaches altitude 10° 16:57:22 10° 293° (WNW) 2,115 10.5 -14.2°
Maximum altitude 17:02:10 52° 9° (N) 846 7.5 -15.0°
Enters shadow 17:04:44 26° 75° (ENE) 1,334 8.1 -15.4°
Drops below altitude 10° 17:06:56 10° 87° (E) 2,100 - -15.8°
Sets 17:09:20 0° 92° (E) 2,997 - -16.2°
